www.pogodaiklimat.ru

Погода и климат >> Архив погоды >> Австрия >> Афленц-Курорт


ПОГОДА в Афленц-Курорте

  • Прогноз погоды в Афленц-Курорте
  • Монитор погоды в Афленц-Курорте

АРХИВ ПОГОДЫ в Афленц-Курорте

Время (UTC), дата Ветер
(напр.,м/с)
 
Видим.   Явления Облачность Т
(С)
Тd
(С)
f
(%)
Тe
(С)
Тes
(С)
Комфортность P
(гПа)
Po
(гПа)
Тmin
(С)
Tmax
(С)
R
(мм)
R24
(мм)
S
(см)
22 14.09 З 1 н/о н/о +15.8 +13.6 87 +16 +16 1028.7 939.9
23 14.09 З 1 н/о н/о +15.6 +13.8 89 +16 +16 1028.8 939.9
00 15.09 З 1 н/о н/о +15.6 +13.2 86 +16 +16 1028.6 939.7
01 15.09 ЮЗ 2 н/о н/о +15.2 +12.7 85 +15 +15 1028.1 939.1
02 15.09 З 1 н/о н/о +15.0 +12.5 85 +16 +16 1027.7 938.7
03 15.09 ЮЗ 2 н/о н/о +14.7 +12.2 85 +14 +14 1027.2 938.1
04 15.09 З 1 н/о н/о +14.4 +12.1 86 +15 +15 1027.1 938.0
05 15.09 ЮЗ 2 н/о н/о +14.1 +11.8 86 +14 +14 1027.2 938.0
06 15.09 ЮЗ 1 н/о н/о +14.4 +12.2 87 +15 +15 1027.1 938.0 +13.9 +16.9
07 15.09 ЮЗ 2 н/о н/о +14.8 +12.3 85 +14 +14 1026.9 937.9
08 15.09 Ю 1 н/о н/о +16.0 +12.9 82 +17 +17 1026.5 937.9
09 15.09 Ю 1 н/о н/о +17.6 +12.9 74 +19 +19 1025.6 937.5
10 15.09 В 1 н/о н/о +19.2 +13.3 69 +22 +22 комфорт 1024.4 936.9
11 15.09 Ю 1 н/о н/о +20.9 +13.8 64 +25 +25 комфорт 1023.1 936.2
12 15.09 ЮЗ 1 н/о н/о +22.3 +13.6 58 +25 +25 комфорт 1021.9 935.5
13 15.09 ЮЗ 1 н/о н/о +23.8 +13.6 53 +26 +26 жарко 1020.6 934.7
14 15.09 Ю 2 н/о н/о +24.2 +12.8 49 +26 +26 жарко 1019.9 934.2
15 15.09 З 1 н/о н/о +23.4 +13.8 55 +27 +27 душно 1019.6 933.7
16 15.09 СЗ 3 н/о н/о +20.9 +13.6 63 +24 +24 комфорт 1020.0 933.4
17 15.09 З 2 н/о н/о +19.2 +14.0 72 +21 +21 комфорт 1020.5 933.4
18 15.09 З 1 н/о н/о +17.9 +14.0 78 +19 +19 1021.1 933.6 +14.3 +24.7
19 15.09 штиль 0 н/о н/о +16.5 +13.6 83 +16 +16 1022.2 934.1
20 15.09 штиль 0 н/о н/о +15.2 +13.2 88 +15 +15 1022.8 934.3
21 15.09 штиль 0 н/о н/о +14.2 +12.7 91 +14 +14 1022.9 934.1
22 15.09 штиль 0 н/о н/о +13.4 +12.3 93 +13 +13 1023.2 934.1
23 15.09 штиль 0 н/о н/о +12.3 +11.5 95 +12 +12 1023.8 934.3
00 16.09 штиль 0 н/о н/о +11.5 +10.7 95 +11 +11 1023.5 933.8
01 16.09 штиль 0 н/о н/о +11.1 +10.3 95 +10 +10 1023.4 933.6
02 16.09 штиль 0 н/о н/о +10.4 +9.6 95 +10 +10 1023.5 933.4
03 16.09 штиль 0 н/о н/о +9.8 +9.0 95 +9 +9 1023.6 933.3
04 16.09 СВ 1 н/о н/о +9.7 +8.9 95 +9 +9 1023.4 933.1
05 16.09 штиль 0 н/о н/о +9.6 +8.8 95 +9 +9 1023.4 933.1
06 16.09 штиль 0 н/о н/о +10.0 +9.2 95 +9 +9 1023.1 932.9 +9.2 +18.1
07 16.09 штиль 0 н/о н/о +10.5 +9.7 95 +10 +10 1022.6 932.6
08 16.09 Ю 1 н/о н/о +12.0 +11.1 94 +12 +12 1021.8 932.4
09 16.09 ЮВ 1 н/о н/о +16.2 +12.3 78 +17 +17 1020.1 932.1
10 16.09 Ю 2 н/о н/о +20.7 +13.6 64 +24 +24 комфорт 1018.0 931.5
11 16.09 ЮВ 2 н/о н/о +24.4 +11.7 45 +26 +26 жарко 1016.1 930.7
12 16.09 ЮЗ 1 н/о н/о +25.3 +10.7 40 +26 +26 жарко 1015.0 929.9 0.0
13 16.09 Ю 2 н/о н/о +25.1 +10.6 40 +26 +26 жарко 1014.3 929.2 0.0
14 16.09 ЮВ 1 н/о н/о +24.6 +10.8 42 +26 +26 жарко 1014.0 928.8
15 16.09 ЮЗ 1 н/о н/о +23.6 +13.1 52 +26 +26 жарко 1014.1 928.7 0.0
16 16.09 З 1 н/о н/о +22.1 +15.0 64 +26 +26 душно 1014.6 928.8
17 16.09 СЗ 3 н/о н/о +20.8 +14.2 66 +24 +24 комфорт 1015.0 928.8
18 16.09 СЗ 2 н/о н/о +19.9 +14.0 69 +22 +22 комфорт 1015.4 928.9 +9.7 +26.1 0.0
19 16.09 СЗ 1 н/о н/о +17.5 +14.0 80 +19 +19 1016.2 929.0
20 16.09 С 1 н/о н/о +17.5 +14.2 81 +19 +19 1016.3 929.1
21 16.09 ЮВ 1 н/о н/о +16.7 +13.9 84 +18 +18 1016.4 928.9
22 16.09 СЗ 2 н/о в посл. час осадки н/о +16.5 +14.6 89 +17 +17 1016.4 928.9 0.1
23 16.09 СЗ 1 н/о в посл. час осадки н/о +15.6 +13.9 90 +16 +16 1017.5 929.6 2
00 17.09 ЮЗ 1 н/о осадки {ливн. осадки} н/о +15.0 +14.0 94 +15 +15 1017.1 929.1 2
01 17.09 В 1 н/о в посл. час осадки н/о +14.6 +13.6 94 +15 +15 1016.7 928.6 0.1
02 17.09 штиль 0 н/о н/о +14.7 +13.7 94 +14 +14 1016.5 928.4 0.0
03 17.09 З 1 н/о {осадки} н/о +14.6 +13.4 93 +15 +15 1016.5 928.4 0.1
04 17.09 штиль 0 н/о в посл. час осадки н/о +14.4 +13.1 92 +14 +14 1016.4 928.2 0.2
05 17.09 С 1 н/о в посл. час осадки н/о +14.0 +12.5 91 +14 +14 1016.4 928.1 0.1
06 17.09 З 1 н/о {ливн. осадки} н/о +13.9 +12.3 90 +14 +14 1016.6 928.2 +13.8 +19.9 3
07 17.09 СВ 1 н/о н/о +14.8 +13.1 90 +15 +15 1016.6 928.5
08 17.09 штиль 0 н/о н/о +16.2 +14.0 87 +16 +16 1016.4 928.8
09 17.09 штиль 0 н/о н/о +17.2 +13.3 78 +17 +17 1015.9 928.6 0.0
10 17.09 Ю 3 н/о н/о +18.9 +9.7 55 +20 +20 1015.1 928.2 0.0
11 17.09 ЮЗ 2 н/о н/о +20.2 +8.5 47 +22 +22 комфорт 1014.3 927.8 0.0
12 17.09 З 3 н/о н/о +20.4 +8.4 46 +22 +22 комфорт 1013.8 927.4 0.0
13 17.09 ЮЗ 2 н/о н/о +21.1 +8.1 43 +22 +22 комфорт 1013.0 926.9
14 17.09 ЮЗ 3 н/о н/о +21.4 +8.0 42 +22 +22 комфорт 1012.3 926.3
15 17.09 ЮЗ 2 н/о н/о +21.6 +8.2 42 +23 +23 комфорт 1012.1 926.2
16 17.09 ЮЗ 3 н/о н/о +20.6 +7.3 42 +22 +22 комфорт 1012.5 926.3
17 17.09 Ю 2 н/о н/о +19.1 +6.9 45 +20 +20 1013.0 926.3
18 17.09 Ю 4 н/о н/о +18.6 +8.0 50 +19 +19 1013.7 926.8 +13.9 +22.1 0.0
19 17.09 ЮЗ 4 н/о н/о +18.6 +7.7 49 +19 +19 1014.2 927.3
20 17.09 Ю 4 н/о н/о +17.9 +6.8 48 +18 +18 1014.8 927.6
21 17.09 Ю 6
{14}
н/о н/о +17.4 +6.3 48 +17 +17 1014.9 927.5
22 17.09 ЮЗ 5 н/о н/о +17.2 +5.8 47 +17 +17 1015.3 927.8
23 17.09 ЮЗ 4 н/о н/о +16.1 +5.4 49 +15 +15 1015.8 928.0
00 18.09 ЮЗ 4
{14}
н/о н/о +14.7 +4.3 50 +14 +14 1017.0 928.6
01 18.09 Ю 5 н/о н/о +14.3 +4.5 52 +13 +13 1017.1 928.6
02 18.09 ЮЗ 4 н/о н/о +13.8 +4.1 52 +13 +13 1017.6 928.9
03 18.09 ЮЗ 4 н/о н/о +13.3 +3.9 53 +12 +12 1018.5 929.6
04 18.09 ЮЗ 3 н/о н/о +12.8 +2.6 50 +12 +12 1019.5 930.3
05 18.09 Ю 3 н/о н/о +12.2 +2.1 50 +11 +11 1020.3 930.9
06 18.09 З 1
{14}
н/о н/о +12.0 +2.2 51 +12 +12 1021.0 931.5 +10.9 +18.8
07 18.09 Ю 4 н/о н/о +12.4 +1.7 48 +11 +11 1021.6 932.1
08 18.09 ЮЗ 4
{13}
н/о н/о +12.8 +1.8 47 +11 +11 1022.0 932.6
09 18.09 ЮЗ 4
{13}
н/о н/о +13.9 +2.2 45 +13 +13 1021.7 932.7
10 18.09 З 2 н/о н/о +14.8 +1.3 40 +15 +15 1021.4 932.6
11 18.09 Ю 4 н/о н/о +15.6 +0.6 36 +15 +15 1020.8 932.3
12 18.09 Ю 3
{13}
н/о н/о +17.0 -0.2 31 +17 +17 1020.1 932.1
13 18.09 Ю 3 н/о н/о +17.0 -1.1 29 +17 +17 1019.6 931.6
14 18.09 штиль 0 н/о н/о +17.6 -0.2 30 +18 +18 1019.1 931.3
15 18.09 ЮЗ 2 н/о н/о +17.3 +2.1 36 +18 +18 1019.0 931.2
16 18.09 ЮВ 2 н/о н/о +15.8 +2.2 40 +16 +16 1019.7 931.4
17 18.09 СВ 4 н/о н/о +13.7 +4.9 55 +12 +12 1021.1 932.1 0.0
18 18.09 СВ 3
{13}
н/о н/о +12.2 +7.1 71 +11 +11 1022.4 932.9 +11.3 +17.9 0.0
19 18.09 СВ 2 н/о н/о +11.6 +6.6 71 +11 +11 1023.4 933.6
20 18.09 СЗ 1 н/о н/о +10.3 +5.7 73 +10 +10 1024.1 933.8
21 18.09 штиль 0 н/о н/о +9.6 +4.9 72 +9 +9 1024.5 934.0
22 18.09 СЗ 1 н/о н/о +8.9 +5.0 77 +8 +8 1024.5 933.8
23 18.09 штиль 0 н/о н/о +8.5 +5.5 81 +8 +8 1025.0 934.1
00 19.09 штиль 0 н/о н/о +8.0 +5.5 84 +7 +7 1025.5 934.4
01 19.09 штиль 0 н/о н/о +6.8 +5.0 88 +6 +6 1025.8 934.3
02 19.09 З 1 н/о н/о +6.0 +4.3 89 +5 +5 1026.0 934.2
03 19.09 СВ 1 н/о н/о +4.7 +3.2 90 +3 +3 1026.5 934.3
04 19.09 штиль 0 н/о н/о +4.2 +3.1 93 +3 +3 1026.9 934.5
05 19.09 штиль 0 н/о н/о +3.6 +2.2 91 +2 +2 1027.5 934.8
06 19.09 СВ 1 н/о н/о +4.2 +2.8 91 +3 +3 1027.9 935.4 +3.5 +12.5
07 19.09 СВ 1 н/о н/о +5.4 +3.7 89 +4 +4 1027.8 935.7
08 19.09 штиль 0 н/о н/о +7.9 +3.1 72 +7 +7 1027.3 936.0
09 19.09 В 1 н/о н/о +10.8 +4.0 63 +11 +11 1026.1 935.8
10 19.09 С 2 н/о н/о +12.4 +1.4 47 +12 +12 1025.3 935.5
11 19.09 Ю 2 н/о н/о +13.2 -0.1 40 +13 +13 1024.9 935.3
12 19.09 Ю 2 н/о н/о +12.7 -1.2 38 +12 +12 1024.8 935.1
13 19.09 ЮВ 1 н/о н/о +14.3 +0.2 38 +15 +15 1024.4 935.2
14 19.09 З 2 н/о н/о +13.4 -0.3 39 +13 +13 1024.6 935.1
15 19.09 СЗ 2 н/о н/о +13.2 +0.2 41 +13 +13 1024.6 935.1
16 19.09 ЮВ 1 н/о н/о +12.4 -0.8 40 +13 +13 1025.2 935.4
17 19.09 СЗ 2 н/о н/о +9.2 +0.6 55 +8 +8 1026.7 935.8
18 19.09 СЗ 3 н/о н/о +8.3 +0.5 58 +6 +6 1027.6 936.3 +4.1 +14.7
19 19.09 штиль 0 н/о н/о +6.9 +1.0 66 +6 +6 1028.8 937.0
20 19.09 СВ 1 н/о н/о +5.9 +1.8 75 +5 +5 1029.7 937.5
21 19.09 З 1 н/о н/о +6.0 +1.9 75 +5 +5 1030.1 937.9
22 19.09 З 1 н/о н/о +5.3 +2.5 82 +4 +4 1030.5 938.1
23 19.09 СЗ 1 н/о н/о +4.7 +2.2 84 +3 +3 1030.7 938.1
00 20.09 штиль 0 н/о н/о +3.5 +1.4 86 +2 +2 1031.2 938.1
01 20.09 штиль 0 н/о н/о +3.3 +1.5 88 +2 +2 1031.2 938.1
02 20.09 штиль 0 н/о н/о +2.4 +0.8 89 +1 +1 1031.2 937.8
03 20.09 З 1 н/о н/о +2.2 +0.7 90 0 0 1031.2 937.7
04 20.09 С 1 н/о н/о +1.5 +0.3 92 -0 -0 1031.4 937.6
05 20.09 штиль 0 н/о н/о +0.7 0.0 95 -1 -1 1031.8 937.7
06 20.09 В 1 н/о н/о +2.2 +1.0 92 0 0 1031.5 938.0 +0.6 +8.5
07 20.09 В 1 н/о н/о +4.9 +2.4 84 +4 +4 1030.8 938.2
08 20.09 СВ 1 н/о н/о +7.3 +2.6 72 +7 +7 1030.3 938.5
09 20.09 ЮВ 1 н/о н/о +10.1 +2.0 57 +10 +10 1028.9 938.1
10 20.09 ЮВ 1 н/о н/о +12.1 +1.4 48 +12 +12 1027.6 937.5
11 20.09 СВ 1 н/о н/о +13.1 +0.8 43 +14 +14 1026.7 937.0
12 20.09 В 2 н/о н/о +13.6 +0.3 40 +13 +13 1026.0 936.5
14 20.09 В 2 н/о н/о +15.0 +1.2 39 +15 +15 1024.6 935.6
15 20.09 ЮВ 1 н/о н/о +15.8 +2.2 40 +17 +17 1024.2 935.5
16 20.09 З 2 н/о н/о +13.0 +1.9 47 +13 +13 1025.2 935.6
17 20.09 СЗ 3 н/о н/о +10.5 +2.8 59 +9 +9 1026.5 936.0
18 20.09 СЗ 1 н/о н/о +9.3 +3.0 65 +9 +9 1027.7 936.8 +2.2 +16.0
19 20.09 СЗ 1 н/о н/о +7.6 +3.6 76 +7 +7 1029.1 937.5
20 20.09 С 1 н/о н/о +6.7 +3.6 81 +6 +6 1029.6 937.7
21 20.09 штиль 0 н/о н/о +5.5 +3.3 86 +5 +5 1030.0 937.7
22 20.09 С 1 н/о н/о +5.0 +3.3 89 +4 +4 1030.3 937.8
23 20.09 штиль 0 н/о н/о +3.8 +2.6 92 +3 +3 1030.6 937.7
00 21.09 штиль 0 н/о н/о +3.1 +2.1 93 +2 +2 1030.9 937.7
01 21.09 СВ 1 н/о н/о +2.9 +2.2 95 +1 +1 1030.8 937.6
02 21.09 штиль 0 н/о н/о +2.3 +1.4 94 +1 +1 1030.8 937.4
03 21.09 штиль 0 н/о н/о +1.9 +1.3 96 +1 +1 1030.6 937.1
04 21.09 штиль 0 н/о н/о +1.6 +1.0 96 0 0 1030.6 937.0
05 21.09 СВ 1 н/о н/о +1.2 +0.6 96 -1 -1 1030.8 937.0
06 21.09 СВ 1 н/о н/о +2.1 +1.4 95 0 0 1030.3 936.9 +0.9 +9.6
07 21.09 В 1 н/о н/о +4.9 +2.7 86 +4 +4 1029.5 937.0
08 21.09 В 1 н/о н/о +7.1 +2.8 74 +6 +6 1028.5 936.8
09 21.09 Ю 1 н/о н/о +10.3 +3.3 62 +10 +10 1026.8 936.3
10 21.09 штиль 0 н/о н/о +13.5 +4.3 54 +13 +13 1025.2 935.8
11 21.09 Ю 2 н/о н/о +14.6 +3.1 46 +14 +14 1024.5 935.4
12 21.09 ЮВ 1 н/о н/о +16.8 +3.8 42 +18 +18 1023.0 934.7
13 21.09 ЮВ 2 н/о н/о +17.2 +3.8 41 +18 +18 1022.3 934.2
14 21.09 Ю 2 н/о н/о +17.2 +3.5 40 +18 +18 1021.4 933.4
15 21.09 Ю 2 н/о н/о +17.2 +4.1 42 +18 +18 1021.2 933.2
16 21.09 З 3 н/о н/о +13.9 +4.4 53 +13 +13 1022.0 933.0
17 21.09 З 3 н/о н/о +11.8 +5.5 65 +10 +10 1022.6 932.9
18 21.09 СЗ 3 н/о н/о +11.0 +5.4 68 +9 +9 1023.0 933.0 +1.9 +17.7
19 21.09 СВ 1 н/о н/о +9.2 +5.8 79 +9 +9 1023.9 933.3
20 21.09 штиль 0 н/о н/о +7.7 +5.6 87 +7 +7 1024.2 933.1
21 21.09 штиль 0 н/о н/о +6.8 +5.3 90 +6 +6 1024.5 933.1
22 21.09 штиль 0 н/о н/о +6.2 +5.0 92 +5 +5 1024.2 932.7

 

Местоположение метеостанции Афленц-Курорт (Австрия): широта 47.55 долгота 15.24 высота над уровнем моря 775 м.

В архиве по умолчанию представлена погода в Афленц-Курорте за последнюю неделю. Архивные данные за месяц целиком и за предыдущие месяцы, начиная с января 2011 года, Вы можете получить, выбрав интересующий диапазон дат из раскрывающегося списка и нажав кнопку "Ввод!".


*Определитесь, кто Вы:
робот инопланетянин человек

Внимание! Время в таблицах - всемирное. Для получения местного времени необходимо прибавить поправку, которая равна 1 ч.

Смотрите также архив погоды в соседних городах и на ближайших метеорологических станциях:

Погода в Капфенберг аэропорту (Австрия) (11 км)
Погода в Капфенберге (Австрия) (12 км)
Погода в Брукк-ан-дер-Муре (Австрия) (15 км)
Погода в Леобене (Австрия) (22 км)
Погода в Пребихле (Австрия) (22 км)
Погода в Санкт-Себастьяне (Австрия) (28 км)
Погода в Фишбахе (Австрия) (32 км)
Погода в Лунце (Австрия) (36 км)
Погода в Кальванге (Австрия) (39 км)
Погода на Шёкле (Австрия) (43 км)

Пояснения к столбцам:

Ветер - указаны скорость ветра в м/с - средняя за 10 мин, порывы в срок и между сроками (в фигурных скобках) и направление, откуда дует ветер: С - северный, СВ - северо-восточный, В - восточный, ЮВ - юго-восточный, Ю - южный, ЮЗ - юго-западный, З - западный, СЗ - северо-западный.
Видимость - горизонтальная дальность видимости в метрах или километрах. При видимости от 1 до 10 км при отсутствии осадков обычно наблюдается дымка, при ухудшении видимости до 1 км и менее - туман. В сухую погоду видимость может ухудшаться дымом, пылью или мглою.
Явления - указаны атмосферные явления, наблюдавшиеся в срок или в последний час перед сроком; фигурными скобками обозначены явления, наблюдавшиеся между сроками (за 1-3 часа до срока); квадратными скобками обозначены град или гололедные отложения с указанием их диаметра в мм.
Облачность - указаны через наклонную черту общая и нижняя облачность в баллах и высота нижней границы облаков в метрах; квадратными скобками обозначены формы облаков: Ci - перистые, Cs - перисто-слоистые, Cc - перисто-кучевые, Ac - высококучевые, As - высокослоистые, Sc - слоисто-кучевые, Ns - слоисто-дождевые, Cu - кучевые, Cb - кучево-дождевые. Подробнее классификацию облаков см. в Атласе облаков (PDF).
T - Температура воздуха - температура, измеренная на высоте 2 м над землей.
Td - Температура точки росы - температура, при понижении до которой содержащийся в воздухе водяной пар достигнет насыщения.
f - Относительная влажность воздуха - влажноcть воздуха, измеренная на высоте 2 м над землей.
Te - Эффективная температура - температура, которую ощущает одетый по сезону человек в тени. Характеристика душности погоды. При расчете учитывается влияние влажности воздуха и скорости ветра на теплоощущения человека.
Tes - Эффективная температура на солнце - температура, которую ощущает человек, с поправкой на солнечный нагрев. Характеристика знойности погоды. Зависит от высоты солнца над горизонтом, облачности и скорости ветра. Ночью, в пасмурную погоду, а также при ветре 12 м/с и более поправка равна нулю.
P - Атмосферное давление - приведенное к уровню моря атмосферное давление.
Po - Атмосферное давление - измеренное на уровне метеостанции атмосферное давление.
Tmin - Минимальная температура - минимум температуры воздуха на высоте 2 м над землей.
Tmax - Максимальная температура - максимум температуры воздуха на высоте 2 м над землей.
R - Количество осадков - Количество выпавших осадков за период времени, мм. При наведении курсора мыши на число - период времени, за который выпало указанное количество осадков.
R24 - Количество осадков - Количество выпавших осадков за 24 часа, мм.
S - Снежный покров - Высота снежного покрова, см. При наведении курсора мыши на число - состояние снежного покрова и степень покрытия местности в баллах.